Kayseri, Turkey

7:01 PM +03 on April 24, 2017 (GMT +0300)
Erkilet Air Base

Weather History for LTAU - November, 2012

Change the Weather History Date:

Thursday, November 29, 2012

  Actual Average Record
Temperature  
Mean Temperature 38 °F -  
Max Temperature 52 °F 40 °F 64 °F (2010)
Min Temperature 25 °F 22 °F 0 °F (2004)
Degree Days  
Heating Degree Days 26    
Moisture  
Dew Point 31 °F    
Average Humidity 78    
Maximum Humidity 93    
Minimum Humidity 37    
Precipitation  
Precipitation 0.00 in - - ()
Sea Level Pressure  
Sea Level Pressure 30.15 in    
Wind  
Wind Speed 1 mph ()    
Max Wind Speed 5 mph    
Max Gust Speed -    
Visibility 5.0 miles    
Events      
Averages and records for this station are not official NWS values.
T = Trace of Precipitation, MM = Missing Value Source: Averaged Metar Reports

Daily Weather History Graph

Daily Weather History Graph

Search for Another Location

Airport or City:

Trip Planner

Search our weather history database for the weather conditions in past years. The results will help you decide how hot, cold, wet, or windy it might be!

Date:

Astronomy

Nov. 29, 2012 Rise Set
Actual Time 6:35 AM EET 4:17 PM EET
Civil Twilight 6:06 AM EET 4:46 PM EET
Nautical Twilight 5:33 AM EET 5:19 PM EET
Astronomical Twilight 5:01 AM EET 5:51 PM EET
Moon 5:03 PM EET (11/29) 7:05 AM EET (11/29)
Length of Visible Light 10h 40m
Length of Day
9h 41m
Waxing Gibbous, 99% of the Moon is Illuminated
Nov 29
Waxing Gibbous
Dec 6
Last Quarter
Dec 13
New
Dec 20
First Quarter
Dec 28
Full

Hourly Weather History & Observations

Time (EET) Temp. Windchill Dew Point Humidity Pressure Visibility Wind Dir Wind Speed Gust Speed Precip Events Conditions
12:20 AM 28.4 °F 24.6 °F 26.6 °F 93% 30.21 in 3.7 mi NE 3.5 mph - N/A   Unknown
12:50 AM 28.4 °F 23.3 °F 26.6 °F 93% 30.18 in 3.7 mi NNE 4.6 mph - N/A   Unknown
1:20 AM 30.2 °F 26.7 °F 28.4 °F 93% 30.18 in 3.7 mi NNE 3.5 mph - N/A   Unknown
1:50 AM 28.4 °F - 26.6 °F 93% 30.18 in 3.7 mi NE 1.2 mph - N/A   Unknown
2:00 AM 29 °F - 27 °F 89%  in 4 mi NE 1.2 mph - -   Mist
2:20 AM 30.2 °F - 28.4 °F 93% 30.21 in 5.0 mi Calm Calm - N/A   Unknown
2:50 AM 30.2 °F - 28.4 °F 93% 30.18 in 5.6 mi Calm Calm - N/A   Unknown
3:20 AM 28.4 °F - 26.6 °F 93% 30.18 in 5.0 mi Calm Calm - N/A   Unknown
3:50 AM 28.4 °F - 26.6 °F 93% 30.18 in 5.0 mi Calm Calm - N/A   Unknown
4:20 AM 26.6 °F - 24.8 °F 93% 30.18 in 4.3 mi Calm Calm - N/A   Unknown
4:50 AM 26.6 °F - 24.8 °F 93% 30.18 in 3.7 mi ENE 1.2 mph - N/A   Unknown
5:20 AM 28.4 °F 24.6 °F 26.6 °F 93% 30.18 in 3.7 mi NNE 3.5 mph - N/A   Unknown
5:50 AM 26.6 °F - 24.8 °F 93% 30.18 in 4.3 mi Calm Calm - N/A   Unknown
6:20 AM 28.4 °F - 26.6 °F 93% 30.18 in 5.6 mi North 2.3 mph - N/A   Unknown
6:50 AM 28.4 °F - 26.6 °F 93% 30.21 in 4.3 mi Calm Calm - N/A   Unknown
7:20 AM 28.4 °F - 26.6 °F 93% 30.21 in 4.3 mi Calm Calm - N/A   Unknown
7:50 AM 32.0 °F - 28.4 °F 87% 30.21 in 3.7 mi Calm Calm - N/A   Unknown
8:00 AM 31 °F - 29 °F 90%  in 4 mi Calm Calm - -   Mist
8:20 AM 35.6 °F - 30.2 °F 81% 30.21 in 5.6 mi Calm Calm - N/A   Unknown
8:50 AM 35.6 °F - 30.2 °F 81% 30.21 in - Calm Calm - N/A   Clear
9:20 AM 39.2 °F - 32.0 °F 75% 30.21 in - Calm Calm - N/A   Clear
9:50 AM 41.0 °F - 32.0 °F 70% 30.21 in 5.0 mi Calm Calm - N/A   Unknown
10:20 AM 42.8 °F - 33.8 °F 70% 30.21 in 1.4 mi Variable 1.2 mph - N/A   Haze
10:50 AM 46.4 °F - 33.8 °F 62% 30.18 in 3.7 mi Variable 1.2 mph - N/A   Unknown
11:20 AM 48.2 °F - 33.8 °F 58% 30.18 in - Variable 2.3 mph - N/A   Clear
11:50 AM 50.0 °F - 35.6 °F 58% 30.15 in - Calm Calm - N/A   Clear
12:20 PM 50.0 °F - 33.8 °F 54% 30.15 in - Variable 1.2 mph - N/A   Clear
12:50 PM 51.8 °F - 35.6 °F 54% 30.15 in - Calm Calm - N/A   Clear
1:20 PM 51.8 °F - 35.6 °F 54% 30.12 in - Calm Calm - N/A   Clear
1:50 PM 51.8 °F - 33.8 °F 50% 30.12 in - Variable 2.3 mph - N/A   Clear
2:00 PM 52 °F - 33 °F 37%  in 12 mi North 2.3 mph - -   Clear
2:20 PM 51.8 °F - 33.8 °F 50% 30.12 in - Variable 1.2 mph - N/A   Clear
2:50 PM 51.8 °F - 33.8 °F 50% 30.12 in - Calm Calm - N/A   Clear
3:20 PM 51.8 °F - 33.8 °F 50% 30.12 in - Calm Calm - N/A   Clear
3:50 PM 50.0 °F - 35.6 °F 58% 30.09 in - NE 1.2 mph - N/A   Clear
4:20 PM 46.4 °F - 35.6 °F 66% 30.09 in - Calm Calm - N/A   Clear
4:50 PM 44.6 °F - 35.6 °F 71% 30.09 in - Variable 1.2 mph - N/A   Clear
5:20 PM 44.6 °F - 35.6 °F 71% 30.09 in - Variable 2.3 mph - N/A   Clear
5:50 PM 42.8 °F - 35.6 °F 76% 30.12 in 4.3 mi Calm Calm - N/A   Unknown
6:20 PM 42.8 °F - 33.8 °F 70% 30.12 in 4.3 mi Calm Calm - N/A   Unknown
6:50 PM 39.2 °F - 33.8 °F 81% 30.12 in - North 2.3 mph - N/A   Clear
7:20 PM 39.2 °F 35.9 °F 33.8 °F 81% 30.12 in - NNE 4.6 mph - N/A   Clear
7:50 PM 39.2 °F - 33.8 °F 81% 30.12 in - Variable 1.2 mph - N/A   Clear
8:00 PM 39 °F - 34 °F 76%  in 12 mi North 1.2 mph - -   Mostly Cloudy
8:20 PM 39.2 °F 37.0 °F 33.8 °F 81% 30.12 in - North 3.5 mph - N/A   Clear
8:50 PM 39.2 °F - 33.8 °F 81% 30.12 in - Calm Calm - N/A   Clear
9:20 PM 37.4 °F - 33.8 °F 87% 30.12 in - Variable 1.2 mph - N/A   Clear
9:50 PM 37.4 °F - 32.0 °F 81% 30.12 in - Variable 1.2 mph - N/A   Clear
10:20 PM 37.4 °F - 33.8 °F 87% 30.12 in 6.2 mi NNW 1.2 mph - N/A   Mostly Cloudy
10:50 PM 35.6 °F - 32.0 °F 87% 30.12 in 6.2 mi Calm Calm - N/A   Mostly Cloudy
11:20 PM 35.6 °F - 32.0 °F 87% 30.12 in 6.2 mi Calm Calm - N/A   Mostly Cloudy
11:50 PM 35.6 °F - 33.8 °F 93% 30.12 in 6.2 mi Calm Calm - N/A   Mostly Cloudy